Location: Goldmont Forest
(38.0233°N, 120.2524°W)
Time: 13:21:48
(UTC+00:00)

Meteor 1-24 Rocket - Pass Details

Date: 05 August 2024
Orbit: 790 x 925 km, 81.3° (Epoch: 16 September)

Event Time Altitude Azimuth Distance (km) Brightness Sun altitude
Rises 12:27:32 0° 343° (NNW) 3,485 7.1 -8.0°
Reaches altitude 10° 12:30:03 10° 338° (NNW) 2,561 6.3 -7.6°
Maximum altitude 12:35:34 45° 267° (W) 1,220 4.2 -6.6°
Drops below altitude 10° 12:41:12 10° 197° (SSW) 2,606 5.9 -5.6°
Sets 12:43:47 0° 191° (S) 3,552 6.6 -5.2°
